TimeCDT,TemperatureF,Dew PointF,Humidity,Sea Level PressureIn,VisibilityMPH,Wind Direction,Wind SpeedMPH,Gust SpeedMPH,PrecipitationIn,Events,Conditions,WindDirDegrees,DateUTC
12:54 AM,60.1,48.9,67,30.01,10.0,SSE,4.6,-,N/A,,Clear,150,2013-09-28 05:54:00
1:54 AM,59.0,46.9,64,30.01,10.0,SSE,3.5,-,N/A,,Clear,150,2013-09-28 06:54:00
2:54 AM,55.9,46.9,72,30.00,10.0,SE,3.5,-,N/A,,Clear,140,2013-09-28 07:54:00
3:54 AM,55.0,46.9,74,30.00,10.0,SE,3.5,-,N/A,,Clear,130,2013-09-28 08:54:00
4:54 AM,55.9,46.9,72,29.99,10.0,SE,3.5,-,N/A,,Clear,140,2013-09-28 09:54:00
5:54 AM,55.9,48.0,75,29.99,10.0,SE,5.8,-,N/A,,Mostly Cloudy,130,2013-09-28 10:54:00
6:54 AM,57.9,48.0,70,29.98,10.0,SE,6.9,-,N/A,,Mostly Cloudy,140,2013-09-28 11:54:00
7:54 AM,61.0,48.9,64,29.97,10.0,SSE,8.1,-,N/A,,Partly Cloudy,160,2013-09-28 12:54:00
8:54 AM,66.0,51.1,59,29.96,10.0,SSE,12.7,19.6,N/A,,Overcast,160,2013-09-28 13:54:00
9:54 AM,71.1,53.1,53,29.93,10.0,South,13.8,21.9,N/A,,Mostly Cloudy,180,2013-09-28 14:54:00
10:54 AM,75.0,55.0,50,29.90,10.0,South,16.1,23.0,N/A,,Partly Cloudy,170,2013-09-28 15:54:00
11:54 AM,77.0,55.0,47,29.86,10.0,South,17.3,26.5,N/A,,Clear,170,2013-09-28 16:54:00
12:54 PM,79.0,55.0,44,29.83,10.0,SSE,18.4,29.9,N/A,,Clear,160,2013-09-28 17:54:00
1:54 PM,78.1,55.9,46,29.79,10.0,South,19.6,29.9,N/A,,Overcast,190,2013-09-28 18:54:00
2:54 PM,75.9,57.0,52,29.78,10.0,South,17.3,25.3,N/A,,Overcast,180,2013-09-28 19:54:00
3:47 PM,68.0,64.4,88,29.81,1.8,SSW,16.1,24.2,0.11,Rain,Heavy Rain,210,2013-09-28 20:47:00
3:54 PM,66.9,64.9,93,29.80,2.5,SSW,12.7,24.2,0.13,Rain,Heavy Rain,210,2013-09-28 20:54:00
4:10 PM,66.2,64.4,94,29.80,3.0,SSW,12.7,-,0.04,Rain,Rain,200,2013-09-28 21:10:00
4:34 PM,66.2,64.4,94,29.80,2.5,SSW,12.7,21.9,0.08,Rain,Rain,200,2013-09-28 21:34:00
4:44 PM,66.2,64.4,94,29.80,3.0,South,11.5,19.6,0.08,Rain,Light Rain,190,2013-09-28 21:44:00
4:50 PM,66.2,64.4,94,29.80,2.5,SSW,12.7,19.6,0.11,Rain,Light Rain,200,2013-09-28 21:50:00
4:54 PM,66.9,64.9,93,29.80,1.8,South,12.7,18.4,0.12,Rain,Heavy Rain,190,2013-09-28 21:54:00
4:59 PM,66.2,64.4,94,29.80,1.5,South,13.8,19.6,0.02,Rain,Rain,190,2013-09-28 21:59:00
5:09 PM,66.2,64.4,94,29.81,1.8,SSW,17.3,25.3,0.05,Rain,Rain,210,2013-09-28 22:09:00
5:13 PM,64.4,62.6,94,29.84,0.8,West,16.1,31.1,0.15,Rain,Heavy Rain,270,2013-09-28 22:13:00
5:19 PM,62.6,60.8,94,29.84,0.8,WNW,19.6,31.1,0.17,Rain,Heavy Rain,290,2013-09-28 22:19:00
5:23 PM,60.8,57.2,88,29.85,2.0,West,13.8,27.6,0.18,Rain,Rain,280,2013-09-28 22:23:00
5:31 PM,60.8,57.2,88,29.85,4.0,West,15.0,23.0,0.19,Rain,Rain,280,2013-09-28 22:31:00
5:54 PM,59.0,57.0,93,29.86,7.0,West,10.4,-,0.20,Rain,Light Rain,270,2013-09-28 22:54:00
6:19 PM,57.2,55.4,94,29.86,7.0,West,9.2,-,0.02,Rain,Light Rain,260,2013-09-28 23:19:00
6:28 PM,57.2,55.4,94,29.87,5.0,West,9.2,-,0.03,Rain,Light Rain,270,2013-09-28 23:28:00
6:54 PM,55.9,54.0,93,29.91,10.0,West,16.1,21.9,0.04,Rain,Light Rain,280,2013-09-28 23:54:00
7:11 PM,55.4,53.6,94,29.90,7.0,West,9.2,-,0.00,Rain,Light Rain,280,2013-09-29 00:11:00
7:54 PM,55.0,53.1,93,29.91,10.0,West,4.6,-,0.00,,Overcast,280,2013-09-29 00:54:00
8:54 PM,54.0,52.0,93,29.93,10.0,WSW,3.5,-,N/A,,Mostly Cloudy,250,2013-09-29 01:54:00
9:49 PM,51.8,51.8,100,29.94,10.0,WSW,5.8,-,0.01,,Scattered Clouds,250,2013-09-29 02:49:00
9:54 PM,53.1,51.1,93,29.94,10.0,WSW,5.8,-,0.01,,Mostly Cloudy,250,2013-09-29 02:54:00
10:42 PM,51.8,51.8,100,29.95,10.0,West,5.8,-,N/A,,Scattered Clouds,270,2013-09-29 03:42:00
10:54 PM,52.0,51.1,97,29.96,10.0,West,5.8,-,N/A,,Partly Cloudy,270,2013-09-29 03:54:00
11:54 PM,50.0,48.9,96,29.96,10.0,WSW,5.8,-,N/A,,Clear,250,2013-09-29 04:54:00